Tracking 31027 objects as of 19-Jul-2025
HD Live streaming from Space Station
objects crossing your sky now

ALISIO-1

Track ALISIO-1 now!
10-day predictions


NORAD ID: 58562
Int'l Code: 2023-185M
Perigee: 528.1 km
Apogee: 538.5 km
Inclination: 97.6 °
Period: 95.2 minutes
Semi major axis: 6904 km
RCS: Unknown
Launch date: December 1, 2023
Source: United Kingdom (UK)
Launch site: AIR FORCE WESTERN TEST RANGE (AFWTR)
Your satellite tracking list
KORSAT 7
Track 1 satellite(s)




NASA's NSSDC Master Catalog

Two Line Element Set (TLE):
1 58562U 23185M   25199.84534603  .00002469  00000-0  14234-3 0  9992
2 58562  97.5761 270.1206 0007499  42.1198 318.0608 15.13299661 88077
Source of the keplerian elements: AFSPC